Weather History for Haines, AK

Change the Weather History Date:

Wednesday, July 3, 2013

  Actual Average Record
Temperature  
Mean Temperature 55 °F -  
Max Temperature 59 °F 62 °F 77 °F (1996)
Min Temperature 53 °F 49 °F 41 °F (1978)
Degree Days  
Heating Degree Days 10    
Growing Degree Days 5 (Base 50)    
Moisture  
Dew Point 51 °F    
Average Humidity 86    
Maximum Humidity 94    
Minimum Humidity 80    
Precipitation  
Precipitation 0.01 in - - ()
Sea Level Pressure  
Sea Level Pressure 30.09 in    
Wind  
Wind Speed 10 mph (East)    
Max Wind Speed 14 mph    
Max Gust Speed 26 mph    
Visibility 10 miles    
Events Rain    
Averages and records for this station are not official NWS values.
T = Trace of Precipitation, MM = Missing Value Source: NWS Daily Summary

Daily Weather History Graph

Daily Weather History Graph

Search for Another Location

Airport:

Trip Planner

Search our weather history database for the weather conditions in past years. The results will help you decide how hot, cold, wet, or windy it might be!

Date:

Astronomy

Jul. 03, 2013 Rise Set
Actual Time 3:54 AM AKDT 10:17 PM AKDT
Civil Twilight 2:30 AM AKDT 11:40 PM AKDT
Nautical Twilight Sun does not rise Sun does not rise
Astronomical Twilight Sun does not rise Sun does not rise
Moon 1:15 AM AKDT (7/3) 6:05 PM AKDT (7/3)
Length of Visible Light 21h 09m
Length of Day
18h 22m
Waning Crescent, 17% of the Moon is Illuminated
Jul 3
Waning Crescent
Jul 7
New
Jul 15
First Quarter
Jul 22
Full
Jul 29
Last Quarter

Hourly Weather History & Observations

Time (AKDT) Temp. Dew Point Humidity Pressure Visibility Wind Dir Wind Speed Gust Speed Precip Events Conditions
12:54 AM 53.1 °F 50.0 °F 89% 30.06 in 10.0 mi East 10.4 mph 24.2 mph N/A   Overcast
1:54 AM 53.1 °F 50.0 °F 89% 30.06 in 10.0 mi East 11.5 mph 19.6 mph N/A   Overcast
2:36 AM 53.6 °F 50.0 °F 88% 30.05 in 10.0 mi East 10.4 mph 19.6 mph N/A   Overcast
2:54 AM 53.1 °F 50.0 °F 89% 30.06 in 10.0 mi East 13.8 mph 26.5 mph N/A   Overcast
3:28 AM 53.6 °F 50.0 °F 88% 30.05 in 10.0 mi East 10.4 mph 19.6 mph 0.00 in Rain Light Rain
3:54 AM 53.1 °F 50.0 °F 89% 30.06 in 10.0 mi East 9.2 mph - 0.00 in   Overcast
4:43 AM 53.6 °F 50.0 °F 88% 30.05 in 10.0 mi East 8.1 mph 16.1 mph 0.00 in   Overcast
4:54 AM 53.1 °F 50.0 °F 89% 30.06 in 10.0 mi ESE 9.2 mph 18.4 mph 0.00 in Rain Light Rain
5:38 AM 53.6 °F 50.0 °F 88% 30.06 in 10.0 mi East 6.9 mph - 0.00 in   Overcast
5:54 AM 53.1 °F 50.0 °F 89% 30.07 in 10.0 mi East 8.1 mph - 0.00 in   Overcast
6:54 AM 53.1 °F 50.0 °F 89% 30.08 in 10.0 mi ESE 8.1 mph 17.3 mph 0.00 in   Overcast
7:54 AM 53.1 °F 50.0 °F 89% 30.09 in 10.0 mi East 9.2 mph 17.3 mph N/A   Overcast
8:54 AM 54.0 °F 50.0 °F 86% 30.09 in 10.0 mi ESE 9.2 mph 16.1 mph N/A   Overcast
9:54 AM 54.0 °F 50.0 °F 86% 30.10 in 10.0 mi East 9.2 mph - N/A   Overcast
10:54 AM 55.0 °F 51.1 °F 86% 30.10 in 10.0 mi East 11.5 mph 17.3 mph N/A   Overcast
11:52 AM 55.4 °F 50.0 °F 82% 30.10 in 10.0 mi ESE 8.1 mph 19.6 mph N/A   Overcast
11:54 AM 55.0 °F 50.0 °F 83% 30.12 in 10.0 mi Variable 5.8 mph 19.6 mph N/A   Overcast
12:46 PM 55.4 °F 51.8 °F 88% 30.11 in 10.0 mi East 10.4 mph 20.7 mph N/A   Overcast
12:54 PM 55.9 °F 51.1 °F 84% 30.12 in 10.0 mi ESE 10.4 mph - N/A   Overcast
1:54 PM 55.9 °F 51.1 °F 84% 30.12 in 10.0 mi Variable 6.9 mph 19.6 mph N/A   Overcast
2:28 PM 55.4 °F 51.8 °F 88% 30.11 in 10.0 mi East 9.2 mph 19.6 mph 0.00 in Rain Light Rain
2:54 PM 57.9 °F 52.0 °F 81% 30.12 in 10.0 mi ESE 12.7 mph 20.7 mph 0.00 in   Overcast
3:27 PM 57.2 °F 51.8 °F 82% 30.10 in 10.0 mi East 9.2 mph - N/A   Overcast
3:41 PM 57.2 °F 51.8 °F 82% 30.10 in 10.0 mi East 12.7 mph 19.6 mph N/A   Overcast
3:54 PM 57.0 °F 51.1 °F 81% 30.12 in 10.0 mi East 9.2 mph 18.4 mph N/A   Overcast
4:17 PM 57.2 °F 51.8 °F 82% 30.10 in 10.0 mi Variable 4.6 mph - 0.00 in   Overcast
4:45 PM 57.2 °F 51.8 °F 82% 30.10 in 10.0 mi East 11.5 mph 17.3 mph 0.00 in   Overcast
4:54 PM 57.0 °F 52.0 °F 83% 30.10 in 10.0 mi East 12.7 mph 17.3 mph 0.00 in   Overcast
5:29 PM 57.2 °F 51.8 °F 82% 30.09 in 10.0 mi ESE 8.1 mph - N/A   Overcast
5:49 PM 55.4 °F 51.8 °F 88% 30.09 in 10.0 mi East 6.9 mph - N/A   Mostly Cloudy
5:54 PM 57.0 °F 51.1 °F 81% 30.10 in 10.0 mi ESE 4.6 mph - N/A   Mostly Cloudy
6:54 PM 55.9 °F 51.1 °F 84% 30.10 in 10.0 mi East 8.1 mph - N/A   Overcast
7:30 PM 55.4 °F 50.0 °F 82% 30.09 in 10.0 mi East 10.4 mph 21.9 mph N/A   Overcast
7:37 PM 55.4 °F 50.0 °F 82% 30.09 in 10.0 mi East 8.1 mph - N/A   Overcast
7:54 PM 55.9 °F 50.0 °F 80% 30.09 in 10.0 mi ENE 11.5 mph 17.3 mph N/A   Overcast
8:54 PM 55.0 °F 51.1 °F 86% 30.10 in 10.0 mi Variable 6.9 mph - 0.00 in Rain Light Rain
9:54 PM 54.0 °F 51.1 °F 90% 30.11 in 10.0 mi East 6.9 mph 16.1 mph 0.01 in Rain Light Rain
10:02 PM 53.6 °F 51.8 °F 94% 30.10 in 10.0 mi ENE 4.6 mph - 0.00 in   Overcast
10:54 PM 54.0 °F 51.1 °F 90% 30.11 in 10.0 mi Variable 6.9 mph - 0.00 in   Overcast
11:54 PM 54.0 °F 50.0 °F 86% 30.12 in 10.0 mi ESE 9.2 mph - N/A   Overcast